User: anonymous
Location: Unspecified
(0.0000°N, 0.0000°E)
Time: 08:05:38
(UTC+00:00)
Language:

CHIBIS-M - Orbit

View from above orbital plane
View from above orbital plane
View from above satellite
View from above satellite

Ground track
Ground track

The orbit data is extracted from the following two-line orbital elements,

1 38051U 11062C   14263.80303941  .00314024  00000-0  15096-2 0  9415
2 38051 051.6197 096.0912 0009526 245.6546 228.1223 15.81179264149119
Epoch (UTC): 20 September 2014 19:16:22
Eccentricity: 0.0009526
inclination: 51.6197°
perigee height: 321 km
apogee height: 333 km
right ascension of ascending node: 96.0912°
argument of perigee: 245.6546°
revolutions per day: 15.81179264
mean anomaly at epoch: 228.1223°
orbit number at epoch: 14911

The dashed part of the orbit path shows where the satellite is in the earth's shadow,  

DLR